Location: Newark
(49.7467°N, 13.3728°E)
Time: 01:13:54
(UTC+00:00)

ISS - Visible Passes

Search period start: 22 September 2020 00:00
Search period end: 02 October 2020 00:00
Orbit: 419 x 420 km, 51.6° (Epoch: 22 September)

Date Brightness Start Highest point End Pass type
(mag) Time Alt. Az. Time Alt. Az. Time Alt. Az.
22 Sep -3.8 18:07:10 10° WSW 18:10:32 71° SSE 18:13:00 17° ENE visible
22 Sep -1.8 19:44:05 10° W 19:45:58 30° WNW 19:45:58 30° WNW visible
23 Sep -3.5 18:56:36 10° W 18:59:58 65° N 19:00:24 57° NE visible
24 Sep -3.6 18:09:08 10° W 18:12:30 74° NNW 18:14:48 19° ENE visible
24 Sep -1.5 19:46:09 10° WNW 19:47:45 25° WNW 19:47:45 25° WNW visible
25 Sep -3.7 17:21:40 10° WSW 17:25:03 89° NNW 17:28:26 10° ENE visible
25 Sep -3.5 18:58:40 10° W 19:02:01 61° N 19:02:06 60° N visible
26 Sep -3.4 18:11:11 10° W 18:14:32 60° N 18:16:25 23° ENE visible
26 Sep -1.2 19:48:05 10° WNW 19:49:22 21° WNW 19:49:22 21° WNW visible
27 Sep -3.5 17:23:39 10° W 17:27:01 65° N 17:30:23 10° ENE visible
27 Sep -3.5 19:00:38 10° WNW 19:03:40 66° NW 19:03:40 66° NW visible
28 Sep -3.6 18:13:08 10° WNW 18:16:31 65° N 18:17:58 30° E visible
28 Sep -0.9 19:50:01 10° WNW 19:50:56 17° W 19:50:56 17° W visible
29 Sep -3.4 17:25:38 10° W 17:28:59 61° N 17:32:17 10° E visible
29 Sep -3.0 19:02:31 10° WNW 19:05:14 52° W 19:05:14 52° W visible
30 Sep -3.8 18:15:01 10° WNW 18:18:24 89° SSW 18:19:33 39° ESE visible
30 Sep -0.5 19:52:08 10° W 19:52:31 12° W 19:52:31 12° W visible
01 Oct -3.7 17:27:30 10° WNW 17:30:53 75° NNE 17:33:54 13° E visible
01 Oct -2.2 19:04:27 10° W 19:06:52 31° WSW 19:06:52 31° WSW visible
